Wind_Speed
11 10 11 11 12 11 9 8 8 8 8 8 8 7 7 7 7 7 7 6 6 6 5 5 6 6 6 7 7 7 7 7 7 8 8 8 8 7 6 6 6 6 5 4 4 4 4 5 4
11 11 11 11 12 10 9 9 8 8 8 8 8 8 7 7 7 6 6 6 6 5 5 5 5 6 6 6 6 7 7 7 7 7 7 7 7 7 7 6 6 5 5 4 4 4 4 4 4
12 11 11 11 11 11 10 10 10 10 9 9 9 9 8 7 6 6 6 6 6 6 5 5 5 5 6 6 7 7 7 7 7 7 7 7 7 6 5 5 5 5 5 5 5 4 4 4 5
12 12 11 12 11 11 11 11 11 10 10 10 9 9 9 8 7 6 7 7 6 5 5 5 5 5 5 6 6 6 6 6 7 7 7 7 6 5 5 4 4 5 5 5 5 5 5 5 5
12 11 12 11 11 11 11 11 11 11 10 10 10 10 9 8 8 7 6 6 5 4 3 3 3 5 5 5 5 5 6 6 7 7 6 6 6 5 5 4 4 5 5 4 5 5 5 5 5
10 10 11 10 9 10 11 11 10 11 10 10 10 10 9 9 8 7 6 6 5 4 3 2 3 5 5 4 4 4 5 6 7 7 6 6 5 5 5 4 3 4 5 4 5 4 5 5 5
10 10 10 9 10 10 10 10 10 10 10 10 10 9 9 9 9 8 7 7 6 5 4 4 4 4 4 4 4 5 5 6 7 6 6 6 5 5 5 4 3 3 3 3 4 4 5 6 5
9 9 10 9 9 9 9 9 9 9 9 9 10 9 9 9 9 9 8 8 7 7 6 5 4 4 4 4 4 5 6 6 6 6 6 6 5 5 5 4 3 2 2 2 3 4 5 5 5
8 9 9 8 8 8 8 8 9 8 9 9 9 9 9 8 9 9 8 8 7 7 6 5 4 4 4 4 5 6 6 6 6 5 5 5 5 5 5 4 3 3 2 2 2 2 4 5 5
7 7 7 7 7 7 7 8 8 8 8 9 9 9 9 8 7 7 7 7 6 5 5 4 3 3 4 4 5 5 5 6 5 5 5 5 4 5 4 4 4 3 3 3 3 2 3 4 4
6 6 6 6 6 6 7 7 7 7 7 8 8 8 8 8 7 6 6 5 5 5 5 4 4 4 4 4 5 5 5 5 5 5 5 4 4 4 4 4 4 4 3 3 3 2 3 3 4
6 5 5 5 5 6 6 6 7 7 7 7 7 7 7 7 6 6 6 6 5 4 5 5 4 4 4 4 4 4 4 5 5 5 5 5 4 4 4 4 4 4 4 3 3 3 4 3 4
5 5 5 5 5 5 5 5 6 6 6 5 6 6 6 6 5 5 5 5 5 4 4 4 4 3 3 3 4 4 5 5 5 5 4 4 4 4 4 4 4 4 4 3 4 5 5 4 4
5 5 5 6 5 5 5 5 5 5 4 4 5 5 5 5 5 5 5 5 5 5 4 4 3 3 3 4 4 4 4 5 5 4 4 4 4 4 4 4 5 4 4 4 4 5 5 4 5
3 4 4 4 4 4 5 5 4 4 4 4 4 4 4 4 4 4 4 5 4 5 4 4 2 2 2 2 2 4 5 4 4 3 3 3 4 5 4 5 5 5 5 5 5 6 7 6 5
2 3 3 2 2 3 4 4 3 3 3 3 4 4 4 4 3 4 4 4 4 4 3 3 2 2 1 1 1 2 3 2 2 2 2 3 3 4 4 4 4 4 5 5 6 7 7 7 6
1 1 1 1 1 1 2 2 2 2 3 3 4 4 3 3 3 3 4 4 4 4 3 3 2 2 2 1 1 1 2 2 2 1 2 2 3 3 4 3 4 4 5 5 6 7 7 7 7
3 3 2 1 2 1 1 1 2 2 3 3 3 4 3 3 3 3 3 3 3 3 3 3 3 2 1 1 1 1 1 2 1 1 2 3 3 3 4 3 4 5 5 6 7 7 7 7 8
5 5 4 3 3 3 2 2 2 2 3 3 4 4 4 4 4 4 3 3 3 3 3 3 3 2 2 1 1 1 1 1 2 2 2 3 3 3 3 4 5 6 6 6 7 7 8 8 8
6 6 5 5 5 4 4 3 4 4 4 4 5 5 5 5 5 5 4 3 3 3 3 3 3 3 2 3 3 3 3 2 2 3 2 2 2 3 3 4 5 6 7 7 7 8 7 8 8
8 7 6 6 5 5 5 6 6 5 5 5 5 5 6 6 7 7 6 5 5 4 4 4 4 4 4 3 4 5 4 4 4 4 4 4 5 5 5 5 6 7 7 7 8 9 9 10 10
10 9 8 8 6 6 6 6 7 7 7 7 6 7 7 6 7 7 8 7 6 5 6 6 6 6 6 5 5 6 6 6 6 5 5 6 7 7 7 8 7 7 8 8 9 10 10 11 11
11 11 10 9 8 8 7 7 8 8 8 8 8 7 8 7 8 8 8 9 8 8 8 8 8 8 8 7 7 7 7 8 8 8 8 8 9 10 10 10 10 9 9 10 10 10 11 11 12
12 12 11 11 10 10 9 8 9 9 8 9 9 9 9 8 8 8 9 9 9 10 10 10 10 10 10 9 9 9 10 9 10 10 11 11 11 11 11 11 12 12 11 12 12 12 12 12 12
13 11 10 10 11 11 11 9 10 10 10 10 10 11 10 9 8 8 8 9 9 10 10 11 11 11 11 11 11 11 11 11 11 12 13 12 12 12 12 12 13 13 13 13 13 13 13 13 13
14 13 12 12 12 12 12 11 11 11 11 11 12 11 10 10 10 10 10 10 10 10 10 11 11 11 12 12 12 12 12 13 13 13 13 13 13 14 14 14 14 14 14 14 15 15 14 14 14
16 15 14 14 13 12 13 13 13 12 12 12 12 11 10 11 12 12 12 11 11 11 11 12 12 12 13 13 13 14 14 14 14 14 13 14 14 15 16 16 16 16 16 16 16 16 16 16 15
18 17 15 15 15 15 14 14 14 13 13 13 13 13 13 12 13 13 13 13 13 13 13 13 13 14 14 15 15 15 16 16 15 15 15 16 16 17 17 17 17 17 17 17 17 17 16 16 16
18 18 17 17 17 16 15 15 16 15 14 14 14 15 15 14 14 15 16 15 15 15 15 15 15 15 16 17 17 17 17 16 16 17 18 18 19 18 18 18 18 18 19 19 18 18 17 17 17
18 18 17 18 19 18 17 17 18 17 16 15 15 15 16 15 15 17 17 17 17 17 17 17 18 18 18 18 18 18 18 18 18 19 19 20 20 20 20 19 19 19 20 19 19 19 19 18 18
Wind_Direction
76 77 79 81 80 76 80 89 85 83 89 87 81 79 86 92 93 93 92 88 90 98 101 109 123 133 133 137 139 140 141 144 146 151 157 157 159 162 160 158 161 162 161 159 162 165 167 180 189
78 77 76 78 81 81 82 86 86 83 83 85 82 79 88 90 89 89 91 90 90 94 101 111 118 128 134 139 141 144 144 141 146 154 158 161 163 164 161 163 166 172 179 184 180 180 180 185 195
81 77 74 77 79 81 82 84 86 84 80 79 79 81 87 87 85 84 88 90 91 95 100 107 117 124 131 137 138 142 148 151 155 160 159 161 165 168 168 166 168 176 182 189 189 193 192 196 196
80 76 74 76 74 77 80 84 84 82 80 79 81 83 82 84 80 81 84 85 88 92 96 105 120 130 135 140 147 147 153 157 162 167 162 161 166 171 172 171 176 182 182 190 196 200 196 195 200
78 76 73 72 74 75 79 80 80 82 80 80 81 79 77 80 79 80 81 77 79 82 89 110 131 133 143 149 153 155 160 162 164 167 166 167 174 173 170 176 180 184 189 199 208 204 204 204 216
75 76 77 78 75 74 76 78 77 81 80 77 78 75 72 75 77 78 77 78 74 71 68 93 143 132 138 142 151 161 161 164 165 168 173 177 180 181 180 184 195 195 200 213 222 218 214 212 222
75 76 79 79 76 73 75 76 77 79 78 75 73 70 71 76 78 78 74 75 73 69 80 94 113 127 137 146 157 162 162 158 159 165 172 179 182 182 186 191 203 204 197 217 231 225 232 225 226
80 78 76 74 75 74 76 75 76 77 77 75 73 70 70 75 76 74 73 73 72 73 78 92 106 120 130 143 155 160 158 156 156 162 171 181 188 189 196 204 209 215 210 221 234 237 243 237 231
78 80 79 82 80 78 77 74 72 73 75 77 74 69 67 74 76 75 73 68 67 69 69 85 101 116 124 133 140 146 152 157 159 162 167 178 186 192 204 208 212 220 237 242 244 239 251 249 243
78 86 90 91 88 84 79 73 71 70 74 77 74 70 66 66 70 73 68 64 64 66 70 86 109 121 123 129 138 142 146 155 162 164 164 172 189 195 205 217 223 239 248 245 237 246 254 257 255
78 87 95 94 91 89 83 75 69 67 72 75 71 67 66 67 66 69 70 61 60 67 75 91 114 124 133 140 143 146 151 160 166 161 163 171 185 199 208 217 229 246 260 263 246 248 268 263 254
77 85 92 91 93 94 89 78 71 65 66 70 68 65 64 65 65 64 63 58 62 79 91 100 111 124 132 139 149 150 159 167 166 165 174 177 187 203 214 222 235 247 257 264 259 267 262 269 265
78 78 78 78 84 89 92 80 69 64 62 67 61 55 55 55 56 57 61 58 62 73 92 97 108 128 132 140 145 146 159 168 177 176 180 187 197 212 230 243 256 258 254 254 262 275 280 278 262
82 71 65 65 70 80 82 72 63 59 62 57 53 48 48 48 52 54 54 56 61 65 77 89 100 115 132 134 141 150 159 169 172 177 188 200 214 227 238 249 259 262 262 262 263 271 277 273 270
92 73 55 50 58 72 73 60 51 55 51 46 47 41 41 41 42 44 47 52 54 60 66 68 78 104 125 124 151 165 169 170 171 182 199 215 224 236 255 263 269 267 266 266 268 274 277 271 272
74 71 49 23 32 63 73 57 39 39 38 38 40 31 27 27 30 32 36 37 42 52 51 50 57 58 50 58 120 165 175 184 192 208 228 240 243 248 263 272 274 276 276 272 272 274 282 278 273
335 357 344 320 326 61 74 63 16 14 24 18 15 15 13 8 11 22 23 28 34 38 35 33 33 35 19 10 111 169 178 191 207 233 257 254 257 261 261 270 275 283 287 284 284 283 284 284 284
233 232 236 249 269 278 345 359 328 343 350 349 350 356 357 354 348 360 8 12 15 16 24 29 28 24 33 33 116 154 174 183 192 229 252 260 264 263 265 270 273 279 280 283 288 285 284 287 286
226 226 233 247 253 263 276 298 309 322 335 339 338 330 327 334 336 335 340 342 341 346 355 15 18 24 24 346 344 326 270 236 232 254 258 268 272 274 279 281 282 280 279 283 287 284 286 286 288
235 242 245 253 261 267 276 293 305 307 313 323 330 326 319 315 312 312 309 312 317 322 323 332 338 340 347 346 344 336 307 281 273 282 282 284 287 293 295 287 285 285 284 283 287 288 287 287 287
241 247 253 258 265 278 282 289 298 301 303 308 316 320 315 312 301 298 301 305 303 300 299 300 305 305 308 315 320 324 322 304 289 285 280 279 281 286 292 290 287 289 289 289 287 287 288 288 288
243 248 254 261 266 277 276 284 293 293 297 302 306 308 309 303 298 295 296 300 297 290 293 293 294 293 290 292 302 309 312 312 304 293 288 285 286 285 292 288 288 289 288 288 289 288 286 287 288
243 245 251 259 263 271 274 282 289 287 290 298 299 301 302 298 291 290 290 294 294 290 289 290 287 285 287 287 293 296 299 302 301 298 296 289 284 286 289 286 284 289 290 288 287 289 287 287 287
246 249 255 262 267 271 272 274 278 281 289 294 296 299 297 294 288 285 286 289 292 292 289 288 286 284 286 285 290 291 291 292 293 294 296 299 294 288 288 285 287 287 289 289 287 285 285 285 286
247 251 261 267 269 269 272 272 275 282 285 288 293 298 296 288 286 283 284 284 286 289 289 287 284 283 282 284 285 286 289 291 293 294 293 295 296 298 299 296 295 291 289 291 290 289 286 284 284
246 245 245 251 260 266 270 271 273 280 283 284 288 292 291 286 283 280 278 280 279 281 283 283 282 282 284 285 284 287 290 293 297 293 292 292 292 293 294 295 294 293 292 291 292 292 290 288 286
245 244 246 253 259 260 269 274 272 276 281 284 286 288 288 287 284 282 280 278 277 277 280 281 282 283 285 287 287 286 290 293 293 290 290 292 290 289 290 291 291 290 293 291 291 292 290 289 287
246 246 246 248 254 263 270 275 270 272 276 281 284 285 285 286 284 282 281 279 277 277 278 279 279 280 282 284 285 286 287 289 290 287 289 289 288 287 287 289 288 287 289 294 295 296 291 287 286
248 246 246 250 253 259 268 272 272 272 275 279 282 283 284 284 284 283 283 282 280 279 278 279 279 280 282 284 284 284 286 287 287 286 287 289 288 286 286 287 286 286 288 291 293 294 293 287 285
248 249 250 254 256 258 264 271 274 272 272 276 278 279 283 281 280 280 280 280 280 278 279 280 280 280 282 284 284 283 284 286 285 285 284 288 286 287 286 286 285 286 287 287 289 290 290 284 282
Height
5898 5898 5898 5898 5899 5899 5897 5897 5895 5894 5894 5892 5891 5890 5890 5889 5890 5891 5889 5887 5887 5886 5885 5884 5884 5885 5886 5886 5887 5887 5888 5888 5889 5889 5890 5890 5891 5891 5891 5892 5892 5892 5893 5893 5894 5894 5895 5895 5896
5900 5899 5900 5901 5900 5900 5899 5898 5896 5895 5894 5893 5892 5891 5890 5890 5889 5889 5888 5888 5887 5887 5886 5886 5885 5886 5886 5887 5887 5888 5888 5888 5889 5889 5890 5890 5891 5891 5891 5891 5892 5892 5893 5893 5894 5894 5894 5895 5896
5901 5901 5902 5902 5902 5901 5900 5899 5897 5896 5895 5893 5893 5892 5891 5890 5890 5889 5889 5888 5888 5887 5887 5886 5886 5887 5887 5887 5888 5888 5888 5889 5889 5890 5890 5891 5891 5891 5891 5891 5892 5892 5892 5893 5893 5894 5894 5895 5895
5903 5904 5905 5904 5903 5902 5901 5900 5898 5897 5896 5895 5894 5893 5892 5891 5890 5890 5889 5889 5888 5888 5887 5887 5887 5887 5888 5888 5888 5889 5889 5889 5889 5890 5890 5891 5891 5891 5891 5891 5892 5892 5892 5892 5892 5893 5893 5894 5894
5905 5906 5906 5906 5905 5903 5902 5900 5899 5898 5897 5896 5895 5894 5893 5892 5891 5890 5890 5890 5889 5888 5887 5887 5886 5887 5888 5888 5888 5889 5889 5889 5890 5890 5891 5891 5891 5891 5891 5891 5892 5892 5892 5892 5892 5893 5893 5893 5894
5908 5908 5908 5907 5906 5905 5903 5902 5901 5900 5899 5898 5897 5896 5894 5893 5892 5891 5891 5890 5889 5888 5887 5885 5885 5887 5888 5889 5889 5889 5889 5889 5890 5890 5891 5891 5891 5892 5891 5892 5892 5891 5891 5891 5892 5892 5892 5893 5893
5909 5909 5909 5908 5908 5906 5905 5904 5902 5901 5900 5899 5898 5897 5895 5894 5893 5892 5892 5891 5890 5889 5888 5886 5886 5887 5888 5889 5889 5889 5889 5889 5890 5890 5891 5891 5891 5892 5892 5892 5891 5891 5891 5891 5891 5891 5892 5892 5892
5910 5911 5911 5910 5909 5908 5907 5905 5904 5903 5902 5901 5900 5898 5897 5896 5894 5893 5893 5892 5891 5890 5889 5888 5888 5889 5889 5889 5889 5889 5889 5889 5890 5890 5891 5891 5891 5891 5892 5891 5891 5891 5891 5891 5891 5891 5891 5891 5891
5911 5913 5912 5911 5910 5909 5908 5906 5905 5904 5903 5902 5901 5899 5898 5897 5896 5895 5894 5894 5893 5892 5891 5890 5890 5889 5889 5889 5889 5889 5889 5889 5890 5890 5891 5891 5891 5891 5891 5891 5891 5891 5890 5890 5890 5890 5890 5889 5889
5913 5913 5913 5912 5911 5910 5909 5908 5907 5905 5904 5903 5902 5901 5899 5898 5897 5896 5896 5895 5894 5893 5892 5891 5891 5890 5890 5889 5889 5889 5889 5889 5889 5890 5891 5891 5891 5891 5891 5891 5891 5890 5890 5890 5890 5889 5889 5888 5888
5914 5914 5913 5912 5911 5911 5910 5909 5908 5907 5906 5905 5903 5902 5901 5900 5899 5898 5897 5896 5895 5894 5893 5892 5892 5891 5890 5890 5889 5889 5889 5889 5889 5890 5890 5891 5891 5891 5891 5891 5890 5890 5889 5889 5889 5888 5888 5887 5887
5915 5915 5914 5913 5912 5912 5911 5910 5909 5908 5907 5906 5904 5903 5902 5901 5900 5899 5898 5897 5896 5895 5894 5893 5892 5892 5891 5890 5890 5889 5889 5889 5889 5890 5890 5891 5891 5891 5891 5891 5890 5890 5889 5889 5889 5888 5888 5887 5886
5916 5916 5915 5914 5913 5913 5912 5911 5910 5908 5907 5907 5906 5905 5903 5902 5901 5900 5899 5898 5897 5895 5895 5894 5893 5892 5892 5891 5890 5890 5889 5889 5889 5890 5891 5891 5891 5891 5891 5890 5890 5889 5889 5889 5889 5888 5887 5887 5886
5917 5916 5916 5915 5915 5914 5913 5912 5911 5910 5908 5907 5907 5906 5904 5903 5902 5901 5900 5899 5897 5896 5895 5895 5894 5893 5892 5891 5891 5890 5890 5890 5890 5891 5891 5891 5891 5891 5890 5890 5890 5889 5889 5888 5888 5887 5887 5886 5885
5917 5917 5917 5916 5915 5915 5914 5914 5912 5911 5909 5908 5907 5906 5905 5904 5903 5902 5901 5900 5898 5897 5896 5895 5894 5894 5893 5892 5891 5891 5891 5891 5891 5891 5891 5891 5891 5891 5890 5890 5889 5889 5888 5888 5887 5887 5886 5885 5884
5918 5918 5918 5917 5916 5915 5916 5916 5913 5912 5910 5909 5908 5907 5906 5905 5904 5903 5901 5900 5899 5898 5897 5896 5895 5894 5894 5893 5892 5892 5892 5892 5892 5891 5891 5891 5891 5890 5889 5889 5889 5888 5888 5887 5887 5886 5886 5885 5884
5918 5919 5919 5918 5916 5916 5916 5915 5914 5912 5911 5910 5909 5908 5906 5905 5904 5903 5902 5901 5900 5899 5898 5897 5896 5895 5894 5894 5893 5892 5892 5892 5891 5891 5891 5890 5890 5889 5889 5888 5888 5887 5887 5886 5886 5885 5885 5884 5883
5919 5919 5918 5918 5916 5916 5915 5915 5914 5913 5912 5911 5909 5908 5907 5906 5905 5904 5903 5902 5901 5900 5899 5898 5897 5895 5895 5894 5893 5892 5892 5892 5891 5891 5890 5890 5889 5888 5888 5887 5887 5886 5886 5885 5884 5884 5883 5882 5882
5917 5917 5917 5917 5916 5915 5915 5914 5914 5913 5912 5911 5910 5908 5907 5906 5905 5904 5903 5902 5901 5900 5899 5898 5897 5896 5895 5894 5893 5893 5892 5891 5891 5890 5889 5889 5888 5888 5887 5887 5886 5886 5885 5884 5883 5883 5882 5881 5880
5915 5916 5916 5916 5915 5915 5915 5914 5913 5912 5912 5911 5909 5908 5907 5906 5905 5904 5903 5902 5901 5900 5899 5898 5897 5896 5895 5894 5894 5893 5892 5891 5890 5890 5889 5888 5888 5887 5886 5886 5885 5884 5884 5883 5882 5881 5880 5880 5879
5913 5914 5915 5914 5914 5914 5914 5914 5913 5912 5911 5910 5909 5908 5907 5906 5905 5903 5902 5901 5900 5899 5898 5898 5897 5896 5895 5894 5893 5892 5892 5890 5890 5889 5888 5887 5887 5886 5885 5885 5884 5883 5882 5881 5881 5880 5879 5878 5877
5912 5912 5912 5913 5913 5913 5914 5914 5912 5911 5910 5909 5908 5907 5906 5905 5904 5903 5901 5900 5899 5899 5898 5897 5896 5895 5894 5894 5893 5892 5891 5890 5889 5888 5887 5886 5885 5884 5884 5883 5882 5881 5880 5880 5879 5878 5877 5876 5875
5909 5910 5910 5910 5911 5912 5912 5912 5912 5909 5908 5908 5907 5905 5904 5903 5902 5901 5900 5899 5898 5897 5896 5895 5894 5894 5893 5892 5892 5891 5890 5889 5888 5886 5885 5884 5883 5883 5882 5881 5881 5880 5878 5877 5876 5875 5874 5873 5872
5906 5907 5908 5908 5909 5910 5910 5910 5910 5908 5907 5906 5905 5903 5902 5901 5900 5899 5898 5897 5896 5895 5894 5894 5893 5892 5891 5890 5890 5889 5888 5887 5886 5885 5884 5882 5881 5880 5879 5878 5878 5877 5876 5875 5874 5873 5871 5870 5869
5903 5906 5907 5908 5908 5908 5907 5907 5907 5905 5904 5904 5902 5901 5899 5898 5898 5897 5896 5896 5895 5894 5893 5892 5891 5890 5889 5888 5887 5886 5886 5885 5884 5883 5881 5880 5879 5878 5877 5876 5875 5874 5873 5872 5871 5870 5868 5867 5866
5900 5902 5905 5906 5906 5906 5904 5904 5904 5902 5901 5901 5900 5898 5897 5896 5895 5895 5894 5893 5892 5891 5891 5890 5889 5888 5887 5886 5885 5884 5883 5882 5881 5880 5879 5877 5876 5875 5874 5873 5872 5871 5870 5869 5867 5866 5865 5864 5863
5896 5898 5900 5901 5901 5902 5902 5901 5901 5899 5898 5898 5897 5895 5894 5893 5892 5891 5891 5890 5889 5889 5888 5887 5886 5886 5885 5884 5883 5881 5880 5879 5878 5877 5875 5874 5873 5872 5871 5870 5868 5867 5866 5865 5864 5863 5862 5860 5859
5893 5894 5896 5897 5897 5899 5899 5898 5898 5896 5895 5894 5893 5892 5891 5890 5889 5888 5887 5887 5886 5885 5885 5884 5883 5882 5881 5880 5879 5878 5877 5876 5874 5873 5872 5871 5870 5869 5867 5866 5864 5864 5863 5861 5859 5858 5857 5856 5855
5889 5890 5891 5893 5894 5895 5896 5897 5893 5892 5891 5890 5890 5888 5888 5886 5885 5885 5884 5883 5882 5882 5881 5880 5879 5878 5877 5876 5875 5874 5873 5872 5871 5869 5868 5867 5865 5864 5863 5861 5860 5859 5858 5857 5856 5854 5853 5852 5851
5884 5885 5887 5889 5888 5889 5891 5893 5888 5887 5887 5886 5885 5884 5884 5883 5882 5881 5880 5879 5878 5877 5877 5876 5875 5874 5873 5872 5871 5870 5869 5868 5866 5865 5863 5862 5860 5859 5858 5856 5855 5854 5853 5852 5851 5849 5848 5847 5846